Regional Weather Roundup
Issued by NWS

Home | Current Version | Previous Version | Text Only | Print | Product List | Glossary Off
Versions: 1 2 3 4 5 6 7 8 9 10 11 12 13 14 15 16 17 18 19 20 21 22 23 24 25 26 27 28 29 30 31 32 33 34 35 36 37 38 39 40 41 42 43 44 45 46 47 48 49 50

000
ASUS43 KLMK 012010
RWRKY
KENTUCKY REGIONAL WEATHER ROUNDUP
NATIONAL WEATHER SERVICE LOUISVILLE KY
400 PM EDT SAT AUG 01 2015

NOTE "FAIR" INDICATES FEW OR NO CLOUDS BELOW 12,000 FEET
WITH NO SIGNIFICANT WEATHER AND/OR OBSTRUCTIONS TO VISIBILITY.

KYZ001>023-026-027-061>063-070>075-012100-
WESTERN AND SOUTH CENTRAL KENTUCKY

CITY           SKY/WX    TMP DP  RH WIND       PRES   REMARKS
PADUCAH        SUNNY     91  69  48 N6        29.99F HX  96
HENDERSON      MOSUNNY   84  61  45 NW6       29.99F
OWENSBORO      SUNNY     86  59  39 NW8       30.00F
HOPKINSVILLE   SUNNY     87  69  53 NW8       29.99F HX  91
BOWLING GREEN  PTSUNNY   91  65  41 MISG      29.99F HX  93
GLASGOW        MOSUNNY  N/A N/A N/A NW5       29.99F
$$

KYZ024-025-028>034-038-045-046-053-012100-
NORTH CENTRAL KENTUCKY

CITY           SKY/WX    TMP DP  RH WIND       PRES   REMARKS
LOUISVILLE/SDF PTSUNNY   89  53  29 N13       29.98S
LOUISVILLE/LOU SUNNY     87  54  32 NW7       30.00S
FORT KNOX      NOT AVBL
$$

KYZ035>037-039>044-047>052-055>060-089>105-012100-
NORTHEAST KENTUCKY

CITY           SKY/WX    TMP DP  RH WIND       PRES   REMARKS
LEXINGTON      SUNNY     85  57  38 MISG      30.00F
COVINGTON      PTSUNNY   83  57  41 N8        29.99F
FRANKFORT      SUNNY     85  55  35 N10       29.99F
$$

KYZ054-064>069-076>088-106>120-012100-
SOUTHEAST KENTUCKY

CITY           SKY/WX    TMP DP  RH WIND       PRES   REMARKS
JACKSON        PTSUNNY   82  60  47 NW5       30.00F
LONDON         PTSUNNY   88  56  33 VRB7      30.00F
SOMERSET       SUNNY     86  57  37 NW8       30.01F
MIDDLESBORO    MOSUNNY   87  62  42 N7        30.00F
MONTICELLO     CLEAR     88  64  44 NW10      30.03F
$$



USA.gov is the U.S. government's official web portal to all federal, state and local government web resources and services.